Погода в Уиле

Погода в Уиле : погода сейчас, прогноз погоды и архив. Всё, что Вы хотите узнать о погоде в Уиле!

Хотите узнать прогноз погоды в Уиле? Тогда Вам сюда: Погода в Уиле

Поиск расширенной информации на нашем сайте:

Другие новости

Новости СМИ2

Главная страница сайта

Новости сайта

03.07.2017

Напоминаем, что на нашем специализированном сайте Метеоцентр.Азия вы можете получить высокодетализированные автоматические прогнозы погоды по пунктам России, СНГ и мира в авиационном формате (включающие направление и скорость ветра, видимость, явления погоды, количество и форму облачности, нижнюю и верхнюю границу облачности).


Погода в Уиле - сегодня

Время (UTC), дата Ветер
(°,м/с) 
Видим.   Явления Облачность Т
(°С)
Тd
(°С)
f(%) Тe
(°С)
Pmin
(гПа)
dP
(гПа)
Po
(мм)
O2
(г/м3)
Тmin Tmax R s Состояние
почвы
09 22.06.18 300 (СЗ) 10 км    3/3 1000 м 
[Cu hum]
+26.9 +4.5 24 +27  1008.5  -0.3  748  274           
12 22.06.18 270 (З) 10 км    ясно 
+28.2 -1.1 15 +28  1007.7  -0.7  748  273           
15 22.06.18 270 (З) 10 км    ясно 
+27.6 +2.1 19 +28  1007.4  -0.3  747  273    +29.5       
18 22.06.18 290 (З) н/о    3/0 верхняя 
[Ci fib]
+22.4 +6.1 35 +22  1008.7  748  278    +29.5       
21 22.06.18 290 (З) н/о    3/0 верхняя 
[Ci fib]
+17.6 +6.5 48 +18  1009.4  0.5  749  282           
00 23.06.18 280 (З) н/о    1/0 верхняя 
[Ci fib]
+16.5 +6.8 53 +17  1009.9  0.5  749  283           
06 23.06.18 050 (СВ) 10 км    3/1 1000 м верхняя 
[Cu hum|Ci fib]
+25.6 +10.2 38 +27  1010.9  -0.1  750  274  +16.3         
09 23.06.18 300 (СЗ) 10 км    4/4 1000 м 
[Cu hum]
+28.7 +9.4 30 +29  1009.7  -1  749  272           
12 23.06.18 300 (СЗ) 10 км    1/1 1000 м 
[Cu hum]
+31.1 +7.4 23 +31  1008.6  -1.1  748  270           
15 23.06.18 330 (СЗ) 10 км    1/0 верхняя 
[Ci fib]
+30.2 +6.3 22 +30  1008.6  0.1  748  271    +31.7       
18 23.06.18 300 (СЗ) н/о    ясно 
+24.7 +9.3 38 +25  1009.7  0.9  749  275    +31.7       
21 23.06.18 280 (З) н/о    ясно 
+20.8 +9.2 47 +21  1010.2  0.3  749  279           
00 24.06.18 300 (СЗ) н/о    ясно 
+18.8 +7.7 48 +19  1010.9  0.6  750  281           
03 24.06.18 320 (СЗ) 10 км    ясно 
+20.6 +9.4 49 +21  1011.8  751  280           
06 24.06.18 330 (СЗ) 10 км    ясно 
+27.4 +6.6 27 +27  1011.6  751  274  +17.5         
09 24.06.18 320 (СЗ) 10 км    ясно 
+29.9 +6.3 23 +30  1011.6  0.1  751  272           
12 24.06.18 340 (С) 10 км    ясно 
+32.1 +5.4 19 +32  1011  -0.5  750  270           
15 24.06.18 360 (С) 10 км    1/0 верхняя 
[Ci fib]
+31.7 +6.9 21 +32  1010.8  -0.2  750  270    +33.2       
18 24.06.18 350 (С) н/о    ясно 
+25.6 +7.6 32 +26  1012.7  1.6  751  276    +33.2       
21 24.06.18 310 (СЗ) н/о    ясно 
+23.1 +8.4 39 +23  1013.6  0.8  752  278           
00 25.06.18 280 (З) н/о    ясно 
+18.8 +7.9 49 +19  1014.5  0.8  752  282           
03 25.06.18 300 (СЗ) 10 км    ясно 
+22.4 +8.9 42 +22  1015.3  0.8  753  279           
06 25.06.18 340 (С) 10 км    ясно 
+29.1 +7.5 26 +29  1015.3  0.3  753  273  +18.2         
09 25.06.18 070 (В) 10 км    ясно 
+32 +6.5 20 +32  1014.7  -0.5  753  271           
12 25.06.18 тихо ()   10 км    ясно 
+34.1 +7.5 19 +34  1013.9  -0.7  752  268           
Время (UTC), дата Ветер
(°,м/с) 
Видим.   Явления Облачность Т
(°С)
Тd
(°С)
f(%) Тe
(°С)
Pmin
(гПа)
dP
(гПа)
Po
(мм)
O2
(г/м3)
Тmin Tmax R s Состояние
почвы

Для получения пояснительной информации подведите курсор к названию столбца.

ПОГОДА в Уиле - архив

Всё, что Вы хотите узнать о погоде в Уиле - удобно и подробно!

Выберите нужную дату (начиная с 1 января 2015* года) и нажмите кнопку "Найти".
Будут отображены архивные сводки погоды по пункту Уил, начиная с указанной даты.


Отображать данные в формате CSV (для использования в таблицах Excel)


Внимание! Наш архив погоды предназначен исключительно для личного некоммерческого использования в познавательных целях. Если Вам необходимы официальные справки о состоянии погоды (для производственных, юридических, коммерческих и т.п. целей), обращайтесь в органы Росгидромета.

*Примечание: данная дата относится к архиву по метеостанциям СССР (Россия, СНГ, Балтия).
Архив по метеостанциям Зарубежной Европы и Азии (кроме Китая) хранится 10 дней, по другим регионам земного шара (Китай, Африка, Америка, Австралия, Океания) - 1 день.

Уил - район местоположения метеостанции


Название, широта, долгота, высота метеостанции:
Уил 49.1°ш. 54.7°д. 128 м над ур. моря [Казахстан]

Дополнительная информация

В oтличие oт бoльшинства пoгoдных сайтoв мы публикуем пoдрoбную метеoинфoрмацию в детальнoм прoфессиoнальнoм фoрмате.

Характеристики температуры и влажнoсти вoздуха измеряются на высoте 2 м в тени вдали oт зданий и деревьев.
Скoрoсть ветра измеряется на высoте 10 м (на урoвне рoста челoвека скoрoсть ветра ниже в 1.5-2 раза). Если метеoстанция нахoдится в гoрoде или в лесу, тo скoрoсть ветра занижена на 2-4 м/с пo сравнению с oткрытым местoм. Скoрoсть ветра над акватoриями крупных рек и oзёр, а также на вершинах хoлмoв на 2-5 м/с выше, чем в oбычных услoвиях.
Атмoсфернoе давление в разных тoчках местнoсти мoжет значительнo oтличаться oт давления на метеoстанции, в зависимoсти oт услoвий рельефа (при пoдъёме на 10 м давление пoнижается примернo на 1 мм рт.ст.).